TimeEDT,TemperatureF,Dew PointF,Humidity,Sea Level PressureIn,VisibilityMPH,Wind Direction,Wind SpeedMPH,Gust SpeedMPH,PrecipitationIn,Events,Conditions,WindDirDegrees,DateUTC
12:51 AM,68.0,64.9,90,29.88,10.0,WSW,4.6,-,0.00,,Overcast,240,2012-06-25 04:51:00
1:51 AM,68.0,64.0,87,29.84,10.0,Variable,3.5,-,0.01,,Scattered Clouds,0,2012-06-25 05:51:00
2:51 AM,68.0,64.9,90,29.82,10.0,Variable,3.5,-,N/A,,Scattered Clouds,0,2012-06-25 06:51:00
3:51 AM,70.0,66.9,90,29.56,9.0,Calm,Calm,-,N/A,,Partly Cloudy,0,2012-06-25 07:51:00
4:51 AM,71.1,69.1,93,29.77,5.0,North,-9999.0,-,N/A,,Scattered Clouds,0,2012-06-25 08:51:00
5:51 AM,71.1,68.0,90,29.76,6.0,North,-9999.0,-,N/A,,Scattered Clouds,0,2012-06-25 09:51:00
6:51 AM,71.1,68.0,90,29.75,6.0,Variable,4.6,-,N/A,,Mostly Cloudy,0,2012-06-25 10:51:00
7:51 AM,66.0,62.1,87,29.74,10.0,Variable,6.9,-,0.01,,Overcast,0,2012-06-25 11:51:00
8:46 AM,64.4,62.6,94,29.77,2.0,North,4.6,-,0.03,Rain,Rain,10,2012-06-25 12:46:00
8:51 AM,64.9,62.1,90,29.76,2.5,North,4.6,-,0.03,Rain,Light Rain,350,2012-06-25 12:51:00
9:00 AM,64.0,63.0,96,29.78,5.0,Calm,Calm,-,0.01,Rain,Light Rain,0,2012-06-25 13:00:00
9:51 AM,64.0,63.0,96,29.73,6.0,Calm,Calm,-,0.01,,Mostly Cloudy,0,2012-06-25 13:51:00
10:51 AM,66.0,64.0,93,29.73,6.0,Calm,Calm,-,0.00,,Partly Cloudy,0,2012-06-25 14:51:00
11:36 AM,66.9,64.0,90,29.76,5.0,Variable,3.5,-,N/A,,Mostly Cloudy,0,2012-06-25 15:36:00
11:51 AM,66.9,64.0,90,29.73,5.0,SSE,3.5,-,N/A,,Mostly Cloudy,160,2012-06-25 15:51:00
12:06 PM,68.0,63.0,84,29.76,6.0,ESE,3.5,-,N/A,,Haze,110,2012-06-25 16:06:00
12:51 PM,69.1,63.0,81,29.74,9.0,Variable,5.8,-,N/A,,Overcast,0,2012-06-25 16:51:00
1:51 PM,72.0,63.0,73,29.72,10.0,Variable,6.9,-,N/A,,Mostly Cloudy,0,2012-06-25 17:51:00
2:32 PM,70.0,64.0,81,29.73,10.0,Calm,Calm,-,N/A,,Overcast,0,2012-06-25 18:32:00
2:51 PM,73.0,64.0,73,29.69,10.0,Variable,6.9,-,N/A,,Mostly Cloudy,0,2012-06-25 18:51:00
3:20 PM,73.0,63.0,71,29.68,10.0,Calm,Calm,-,N/A,,Mostly Cloudy,0,2012-06-25 19:20:00
3:51 PM,73.0,61.0,66,29.65,10.0,Variable,5.8,-,N/A,,Clear,0,2012-06-25 19:51:00
4:33 PM,66.0,62.1,87,29.70,1.8,Variable,3.5,19.6,0.01,Rain,Heavy Rain,0,2012-06-25 20:33:00
4:46 PM,64.4,62.6,94,29.71,3.0,South,3.5,-,0.07,Rain,Light Rain,180,2012-06-25 20:46:00
4:51 PM,64.0,64.0,100,29.68,3.0,Calm,Calm,-,0.07,Rain,Light Rain,0,2012-06-25 20:51:00
5:51 PM,66.0,63.0,90,29.68,8.0,ENE,4.6,-,0.00,,Mostly Cloudy,60,2012-06-25 21:51:00
6:51 PM,64.9,62.1,90,29.72,10.0,Variable,6.9,-,0.02,,Overcast,0,2012-06-25 22:51:00
7:51 PM,64.0,61.0,90,29.72,9.0,Variable,4.6,-,N/A,,Overcast,0,2012-06-25 23:51:00
8:51 PM,63.0,61.0,93,29.73,10.0,Calm,Calm,-,N/A,,Overcast,0,2012-06-26 00:51:00
9:51 PM,64.9,60.1,84,29.73,10.0,Calm,Calm,-,N/A,,Scattered Clouds,0,2012-06-26 01:51:00
10:51 PM,64.0,54.0,70,29.73,10.0,Calm,Calm,-,N/A,,Partly Cloudy,0,2012-06-26 02:51:00
11:51 PM,63.0,51.1,65,29.73,10.0,Variable,4.6,-,N/A,,Partly Cloudy,0,2012-06-26 03:51:00